Probability
0 0 0 0 0 0 0 0 0 0 0 0 0 0 0 0 0 0 0 0 0 0 0 0 0 0 0 0 0 0 0 0 0 0 0 0 0 0 0 0 0 0 0
0 0 0 0 0 1 1 1 0 0 0 0 0 0 0 0 0 0 0 0 0 0 1 1 1 0 0 0 0 0 0 0 0 0 0 0 0 0 0 0 0 0 0
1 0 0 0 0 1 2 1 0 0 0 0 0 0 0 0 0 0 0 0 0 1 3 4 3 2 1 1 1 1 0 0 0 0 0 0 0 0 0 0 0 0 0
2 1 0 0 0 2 2 1 0 0 0 0 0 0 0 0 0 0 0 0 0 1 3 5 5 4 3 3 2 1 0 0 0 0 0 0 0 0 0 0 0 0 0
4 3 1 1 1 2 2 1 0 0 0 0 0 0 0 0 0 0 0 0 0 0 1 3 3 4 4 4 2 1 0 0 0 0 0 1 0 0 0 0 0 0 0
6 5 4 2 2 3 2 1 0 0 0 0 0 0 0 0 0 0 0 0 0 0 0 0 1 2 3 4 2 1 1 0 0 0 0 0 0 0 0 0 0 0 0
7 7 6 4 3 3 2 1 1 1 0 0 0 0 0 0 0 0 0 0 0 0 0 0 0 1 2 2 2 3 3 2 2 1 0 0 0 0 0 0 0 0 0
6 7 6 5 4 4 3 2 2 2 1 0 0 0 0 0 0 0 0 0 0 0 0 0 0 0 1 1 1 3 5 5 4 3 1 0 1 1 0 0 0 0 0
5 6 6 6 4 4 3 3 2 3 2 1 0 0 0 0 0 0 0 0 0 0 0 0 0 0 0 0 1 2 4 6 6 6 6 4 3 2 1 0 0 0 0
6 7 8 7 5 5 4 3 2 2 2 1 0 0 0 0 0 0 0 0 0 0 0 0 0 0 0 0 0 1 2 3 4 8 11 10 8 5 2 1 0 0 0
9 10 11 9 8 6 5 3 2 1 1 0 0 0 0 0 0 0 0 0 0 0 0 0 0 0 0 0 0 0 1 1 2 5 10 12 11 9 7 4 2 1 0
11 11 11 11 10 8 6 5 3 1 0 0 0 0 0 0 0 0 0 0 0 0 0 0 0 0 0 0 0 0 0 0 0 2 5 8 9 10 10 8 6 4 2
12 11 10 11 11 10 8 7 5 2 0 0 0 0 0 0 0 0 0 0 0 0 0 0 0 0 0 0 0 0 0 0 0 0 2 3 6 8 9 9 9 7 5
14 12 11 12 11 9 8 7 6 2 0 0 0 0 0 0 0 0 0 0 0 0 0 0 0 0 0 0 0 0 0 0 0 0 0 1 2 3 5 6 8 7 6
18 17 16 14 10 7 6 6 5 2 0 0 0 0 0 1 1 0 0 1 1 1 0 0 0 0 0 0 0 0 0 0 0 0 0 0 0 1 1 3 4 4 4
20 21 19 15 11 9 8 8 6 3 1 1 0 0 1 2 1 0 0 1 2 2 1 0 1 0 0 0 0 0 0 0 0 0 0 0 0 0 0 1 1 1 1
22 21 19 15 12 11 11 10 8 6 4 2 2 2 2 2 1 0 0 1 2 2 1 0 0 0 0 0 0 0 0 0 0 0 0 0 0 0 0 0 0 0 0
21 19 16 13 11 11 11 10 9 8 8 6 5 5 3 1 0 0 0 1 1 1 0 0 0 0 0 0 0 0 0 0 0 0 0 0 0 0 0 0 0 0 0
16 15 13 11 10 10 11 11 11 11 11 9 9 8 6 4 2 1 1 1 0 0 0 0 0 0 0 0 0 0 0 0 0 0 0 0 0 0 0 0 0 0 0
13 11 9 8 10 13 14 15 14 13 12 11 10 10 9 8 6 4 2 1 0 0 0 0 0 0 0 0 0 0 0 0 0 0 0 0 0 0 0 0 0 0 0
14 12 9 9 12 16 16 16 15 13 11 9 9 9 9 9 7 5 2 1 1 2 1 1 0 0 0 0 0 0 0 0 0 0 0 0 0 0 0 0 0 0 0
17 15 13 11 13 14 13 11 10 8 7 6 6 7 7 6 5 4 2 1 1 2 2 2 1 1 1 1 0 0 0 0 0 0 0 0 0 0 0 0 0 0 0
19 17 15 13 12 12 9 6 4 4 3 3 5 6 6 4 4 3 2 1 1 1 2 2 2 2 2 1 0 0 0 0 0 0 0 0 0 0 0 0 0 0 0
20 17 14 13 13 11 8 4 2 2 3 4 6 7 6 5 4 3 3 2 2 1 1 1 1 1 1 1 0 0 0 0 0 0 0 0 0 0 0 0 0 0 0
22 17 14 13 12 9 5 4 3 3 5 6 7 7 6 4 3 3 3 2 2 2 1 1 0 0 0 0 0 0 0 0 0 0 0 1 1 1 1 1 0 0 0
22 18 13 12 11 7 3 3 3 4 6 6 6 6 6 4 3 3 3 1 1 2 2 2 1 0 0 0 0 0 0 0 0 0 1 2 2 2 2 1 0 0 0
Wind_Speed
2 2 1 1 1 1 1 1 1 0 0 1 2 3 3 4 4 4 4 11 11 11 11 11 11 11 11 11 11 10 10 10 10 10 9 9 10 10 9 9 8 8 8
3 2 1 1 1 1 1 1 1 1 0 1 1 2 3 4 4 4 3 7 11 11 11 12 12 11 11 11 11 11 11 11 10 10 10 10 9 10 10 10 9 9 9
3 2 2 1 0 0 0 0 1 1 0 0 0 1 3 3 4 5 5 4 5 9 12 12 12 11 11 11 11 11 11 11 11 11 10 10 10 10 10 10 10 10 9
4 2 2 1 1 0 1 0 0 1 1 0 1 1 2 3 4 5 5 5 4 4 8 12 12 11 11 11 11 11 11 10 10 11 11 12 12 11 11 11 11 10 10
4 3 2 1 1 1 1 1 1 0 1 1 1 1 2 2 4 5 5 5 5 5 4 8 11 11 12 11 11 11 11 11 11 11 11 12 12 12 12 12 12 11 11
3 3 2 2 1 1 0 0 0 0 1 1 1 1 1 2 2 3 5 4 4 5 5 5 5 7 11 11 10 11 11 11 11 11 12 12 12 12 12 12 13 13 12
3 3 2 2 2 1 1 1 0 1 1 0 1 2 3 1 1 2 3 3 4 5 5 5 4 4 4 9 9 10 11 11 11 11 11 11 11 11 11 12 12 13 14
3 3 3 2 2 1 1 0 0 0 1 0 1 1 2 4 3 1 1 3 4 3 4 5 4 5 3 3 4 9 10 11 11 11 12 12 12 11 11 12 12 12 12
3 3 3 3 2 2 2 1 1 1 1 1 1 2 2 2 2 2 1 1 2 3 3 3 4 4 5 3 3 6 8 9 11 12 12 11 11 11 11 12 12 12 12
3 3 3 3 3 2 2 2 2 1 1 1 1 1 2 3 2 1 2 2 1 1 2 3 3 3 3 3 3 4 6 7 8 9 10 9 9 9 10 10 11 12 11
3 3 3 3 3 2 2 2 1 1 1 1 1 1 0 0 2 2 1 2 2 1 0 1 1 2 3 3 3 3 4 4 5 6 6 7 7 8 9 10 10 10 10
2 3 3 3 3 2 3 2 2 1 1 1 1 1 1 1 1 2 2 1 1 1 1 0 1 1 2 2 3 3 3 3 4 4 4 4 4 5 6 7 8 7 8
2 3 3 3 3 3 3 2 2 1 1 1 1 1 1 1 1 2 2 1 1 1 1 1 0 1 1 1 1 2 2 2 2 2 2 2 1 1 2 3 4 4 5
3 3 3 3 3 3 3 2 1 2 1 1 1 1 1 1 1 1 2 2 1 0 0 1 1 0 0 1 1 2 1 2 3 2 2 3 2 1 1 2 2 2 2
3 3 3 3 3 3 2 2 1 1 1 1 0 0 0 1 1 0 1 2 3 1 1 1 1 1 0 1 1 1 1 3 3 3 3 3 3 2 2 2 2 2 3
3 3 3 3 3 2 2 2 1 1 1 0 0 1 1 1 1 0 0 1 2 3 1 1 1 1 0 2 2 1 1 3 3 3 3 3 3 2 2 2 2 2 3
3 3 3 3 3 2 2 2 2 1 1 0 1 1 1 1 1 1 1 1 1 2 2 0 1 1 2 1 1 1 1 1 1 2 2 3 3 2 2 3 2 2 2
2 2 2 3 3 2 2 3 2 1 2 1 1 1 1 1 2 1 1 1 1 1 2 1 1 1 1 1 1 1 1 1 1 2 2 2 2 2 2 2 2 2 2
2 2 2 2 2 2 3 3 3 2 2 1 1 1 1 2 2 1 1 1 1 2 2 2 0 1 1 1 1 2 2 1 1 2 2 2 2 1 1 1 1 1 2
2 2 2 2 3 3 3 2 2 2 2 1 1 1 1 1 1 1 2 1 2 2 2 2 1 1 1 1 1 1 1 2 1 1 2 2 2 2 1 1 0 0 1
2 2 2 2 3 3 2 3 3 3 3 2 2 2 3 4 4 2 2 2 2 2 2 2 1 1 1 1 1 1 0 1 2 1 1 2 2 2 2 1 1 1 1
2 3 3 3 3 2 3 5 4 3 3 3 2 2 3 4 5 6 5 5 4 3 2 2 1 1 1 1 1 0 1 1 1 1 1 1 1 1 2 1 1 1 1
3 4 3 4 3 3 3 3 5 4 3 2 2 2 2 3 3 3 5 7 6 5 3 3 2 1 1 2 1 1 1 1 1 1 1 1 2 2 2 1 1 1 1
3 3 3 3 3 4 4 4 5 4 3 2 2 2 3 2 2 3 4 4 4 3 2 2 2 1 1 1 2 2 2 1 1 1 1 0 2 1 2 2 2 1 2
3 4 3 3 4 3 4 4 5 4 4 3 3 3 3 2 3 4 4 4 3 3 4 5 3 2 3 3 2 2 2 2 1 1 1 1 1 1 1 2 2 2 2
4 5 5 4 4 3 4 5 6 4 4 3 3 3 4 4 4 4 4 3 2 1 2 3 4 4 3 3 3 2 2 2 1 1 1 1 0 1 1 2 1 2 2
Wind_Direction
149 151 167 170 193 199 188 200 240 254 146 148 172 160 166 163 166 164 171 176 176 178 178 178 179 181 180 181 182 183 184 184 186 186 187 188 187 186 188 189 189 188 189
148 148 155 154 166 184 186 179 183 175 191 158 171 162 161 166 170 170 176 183 185 184 185 184 187 189 189 190 190 192 193 195 194 194 196 196 196 195 196 197 198 198 197
154 149 150 142 203 182 134 72 50 44 37 140 191 173 171 174 176 180 181 184 190 193 192 193 194 193 195 195 196 197 200 202 202 202 203 203 204 203 204 204 205 205 203
158 153 151 180 222 139 100 91 44 33 350 293 244 229 194 187 187 185 184 186 188 193 200 200 199 199 201 203 203 203 203 205 206 207 209 210 210 210 210 210 211 209 208
164 158 169 191 177 134 141 165 99 170 248 282 261 240 215 198 192 186 184 189 190 194 196 208 209 206 208 210 209 209 209 211 212 213 214 215 216 215 215 216 215 213 213
163 152 163 178 154 129 118 58 92 317 234 251 289 309 279 225 194 193 191 189 192 199 198 205 211 219 217 215 215 215 215 216 217 220 222 222 220 217 217 218 219 218 217
163 156 168 168 156 157 183 184 134 360 315 310 38 350 337 325 230 208 191 179 189 199 198 202 206 213 216 220 223 223 224 222 220 225 228 226 224 222 220 221 221 220 218
180 176 175 182 176 163 175 181 130 74 310 94 130 75 356 349 343 282 189 181 190 192 206 205 203 207 208 207 221 226 231 232 229 229 230 229 226 225 225 223 221 220 218
187 184 187 190 187 177 196 217 195 165 252 301 150 145 146 241 304 334 300 217 203 202 209 201 204 207 202 202 211 226 229 234 235 235 234 232 228 228 230 228 225 222 219
197 193 196 193 189 187 199 222 210 183 160 287 309 194 184 175 169 308 329 319 259 214 212 206 199 193 193 197 202 208 220 227 237 239 240 237 231 229 228 228 229 229 226
212 204 198 191 194 193 201 214 205 185 169 184 242 275 260 192 168 168 259 310 346 325 226 195 176 179 191 196 205 217 220 226 235 239 243 243 236 232 228 229 232 233 230
230 226 207 195 194 197 204 209 203 198 204 198 223 230 183 189 209 179 205 243 276 316 8 71 169 192 190 190 195 184 188 211 220 227 236 243 242 237 225 225 229 231 230
221 235 220 202 199 205 203 201 192 204 197 190 209 239 230 224 200 176 172 201 218 273 3 9 255 208 188 184 199 169 167 172 180 191 197 205 217 221 212 207 212 219 221
216 218 211 203 201 204 208 190 186 203 185 195 246 259 290 297 234 187 179 166 170 327 329 290 328 260 211 182 188 187 181 144 147 155 159 159 154 141 133 148 173 184 190
208 205 201 197 198 197 196 171 164 194 154 163 232 277 271 293 303 243 173 160 163 188 266 266 290 324 273 123 144 163 169 144 146 156 156 152 144 141 141 139 157 159 165
197 191 200 199 195 195 190 163 149 163 133 184 99 36 335 299 302 326 184 161 153 163 199 265 248 270 31 88 81 97 145 129 138 155 157 152 145 141 139 134 135 156 172
191 191 188 189 187 183 177 154 156 161 157 12 11 32 337 332 357 5 36 67 93 131 154 290 8 17 54 79 65 54 62 93 108 132 148 144 142 145 142 138 143 156 176
190 188 174 168 172 165 151 144 143 147 147 146 4 26 351 15 25 19 42 52 66 118 140 152 11 8 35 82 71 46 39 68 107 125 133 123 128 138 148 150 161 178 189
169 165 153 151 150 148 142 144 147 140 142 143 110 81 14 53 31 21 42 51 48 69 89 123 90 14 24 39 46 31 44 33 78 85 86 90 93 100 117 131 178 206 210
143 143 140 145 146 144 135 137 136 129 119 110 94 94 80 84 83 56 57 63 81 84 83 89 72 43 25 5 40 40 24 12 36 38 41 48 44 46 39 58 106 193 238
131 123 110 116 133 138 135 132 122 116 108 92 72 63 66 72 70 80 93 100 98 99 95 99 97 55 24 16 350 330 44 12 21 28 34 14 17 10 348 344 301 278 320
110 101 92 95 106 118 117 122 126 117 104 101 90 74 74 64 65 71 77 84 99 117 130 130 136 141 223 249 263 182 144 95 324 324 72 357 21 334 312 318 311 339 9
114 106 102 97 94 80 99 122 121 115 109 113 113 94 71 61 63 73 68 62 53 58 101 145 139 196 206 217 181 177 174 150 206 255 125 342 336 324 316 325 293 297 340
116 112 105 104 96 69 83 104 106 102 97 88 96 99 92 64 59 88 82 67 51 37 50 95 136 199 198 205 189 188 185 133 51 20 88 111 313 313 325 333 338 352 353
110 99 92 90 87 65 64 89 105 98 90 72 69 70 87 87 66 88 92 83 57 25 42 59 66 62 52 52 86 94 77 87 32 321 358 109 301 322 333 338 350 0 3
108 103 86 76 78 68 62 85 104 107 97 82 60 50 60 77 82 93 107 107 94 10 33 36 33 27 29 31 51 110 143 134 122 299 306 85 272 35 353 322 333 337 339